EZY912P EGBB-EGPH

Flight info

Callsign EZY912P
Flight time 0h 44m
Altitude 28000
Route LUVUM DCT TNT N57 POL UN601 RIBEL DCT INPIP
Aircraft A320/M-SDE3FGHIRWY/LB1

Departure

Time 2026-05-07 12:23
Airport Birmingham Airport (EGBB)

Arrival

Time 2026-05-07 13:07
Airport Edinburgh Airport (EGPH)
Time Latitude Longitude Altitude Speed Heading
2026-05-07 11:42 52.45402 -1.73496 322 ft 0 kts 146°
2026-05-07 11:45 52.45400 -1.73520 321 ft 0 kts 146°
2026-05-07 12:12 52.45402 -1.73522 323 ft 2 kts 146°
2026-05-07 12:12 52.45423 -1.73547 323 ft 4 kts 142°
2026-05-07 12:12 52.45444 -1.73574 320 ft 4 kts 146°
2026-05-07 12:12 52.45466 -1.73591 323 ft 4 kts 189°
2026-05-07 12:13 52.45474 -1.73587 322 ft 0 kts 236°
2026-05-07 12:16 52.45473 -1.73591 323 ft 3 kts 237°
2026-05-07 12:16 52.45435 -1.73683 323 ft 13 kts 236°
2026-05-07 12:16 52.45381 -1.73815 323 ft 15 kts 236°
2026-05-07 12:17 52.45328 -1.73943 323 ft 14 kts 236°
2026-05-07 12:17 52.45326 -1.74087 323 ft 13 kts 296°
2026-05-07 12:17 52.45365 -1.74212 323 ft 12 kts 297°
2026-05-07 12:17 52.45404 -1.74338 323 ft 14 kts 297°
2026-05-07 12:18 52.45445 -1.74473 323 ft 12 kts 296°
2026-05-07 12:18 52.45489 -1.74586 323 ft 13 kts 320°
2026-05-07 12:18 52.45596 -1.74707 320 ft 25 kts 326°
2026-05-07 12:18 52.45754 -1.74883 310 ft 30 kts 326°
2026-05-07 12:19 52.45903 -1.75047 307 ft 19 kts 325°
2026-05-07 12:19 52.45996 -1.75152 305 ft 15 kts 326°
2026-05-07 12:19 52.46077 -1.75241 306 ft 14 kts 326°
2026-05-07 12:19 52.46154 -1.75326 303 ft 13 kts 326°
2026-05-07 12:20 52.46232 -1.75413 302 ft 14 kts 326°
2026-05-07 12:20 52.46339 -1.75533 302 ft 23 kts 325°
2026-05-07 12:20 52.46471 -1.75679 302 ft 20 kts 326°
2026-05-07 12:20 52.46552 -1.75770 305 ft 11 kts 326°
2026-05-07 12:21 52.46605 -1.75829 307 ft 8 kts 326°
2026-05-07 12:21 52.46635 -1.75881 309 ft 6 kts 289°
2026-05-07 12:21 52.46604 -1.75993 305 ft 14 kts 236°
2026-05-07 12:21 52.46557 -1.76092 306 ft 5 kts 201°
2026-05-07 12:22 52.46529 -1.76072 308 ft 1 kts 148°
2026-05-07 12:22 52.46520 -1.76063 308 ft 14 kts 147°
2026-05-07 12:22 52.46219 -1.75728 308 ft 87 kts 146°
2026-05-07 12:23 52.45556 -1.74991 324 ft 141 kts 146°
2026-05-07 12:23 52.44655 -1.73989 654 ft 158 kts 147°
2026-05-07 12:23 52.43743 -1.72987 1407 ft 157 kts 146°
2026-05-07 12:23 52.42793 -1.71930 1872 ft 175 kts 146°
2026-05-07 12:24 52.41726 -1.70746 2346 ft 193 kts 146°
2026-05-07 12:24 52.40726 -1.69256 3009 ft 199 kts 122°
2026-05-07 12:24 52.40375 -1.67052 3620 ft 211 kts 86°
2026-05-07 12:24 52.40765 -1.64706 4419 ft 213 kts 75°
2026-05-07 12:25 52.41353 -1.62477 5196 ft 217 kts 53°
2026-05-07 12:25 52.42539 -1.60888 5785 ft 229 kts 22°
2026-05-07 12:25 52.44088 -1.60185 6497 ft 234 kts 13°
2026-05-07 12:25 52.45699 -1.59683 7249 ft 237 kts
2026-05-07 12:26 52.47432 -1.59745 7635 ft 261 kts 356°
2026-05-07 12:26 52.49327 -1.59930 8106 ft 281 kts 356°
2026-05-07 12:26 52.51276 -1.60315 8826 ft 289 kts 344°
2026-05-07 12:26 52.53162 -1.61510 9653 ft 294 kts 335°
2026-05-07 12:27 52.55057 -1.62887 10351 ft 305 kts 335°
2026-05-07 12:27 52.57074 -1.64349 10641 ft 328 kts 335°
2026-05-07 12:27 52.59205 -1.65886 11227 ft 339 kts 335°
2026-05-07 12:27 52.61385 -1.67454 11987 ft 343 kts 335°
2026-05-07 12:28 52.62838 -1.68497 12522 ft 346 kts 335°
2026-05-07 12:28 52.65063 -1.70095 13293 ft 350 kts 335°
2026-05-07 12:28 52.67303 -1.71707 14052 ft 354 kts 335°
2026-05-07 12:28 52.69607 -1.73222 14744 ft 358 kts 342°
2026-05-07 12:29 52.72060 -1.74029 15425 ft 362 kts 354°
2026-05-07 12:29 52.74601 -1.73997 16129 ft 366 kts
2026-05-07 12:29 52.77138 -1.73428 16821 ft 370 kts
2026-05-07 12:29 52.79699 -1.72846 17505 ft 373 kts
2026-05-07 12:30 52.82288 -1.72256 18170 ft 377 kts
2026-05-07 12:30 52.84871 -1.71673 18749 ft 381 kts
2026-05-07 12:30 52.87508 -1.71078 19314 ft 384 kts
2026-05-07 12:30 52.90174 -1.70474 19894 ft 387 kts
2026-05-07 12:31 52.92862 -1.69866 20473 ft 391 kts
2026-05-07 12:31 52.95574 -1.69248 21050 ft 394 kts
2026-05-07 12:31 52.98316 -1.68620 21634 ft 398 kts
2026-05-07 12:31 53.01045 -1.67996 22218 ft 401 kts
2026-05-07 12:32 53.03842 -1.67644 22753 ft 406 kts 358°
2026-05-07 12:32 53.06665 -1.68129 23298 ft 409 kts 348°
2026-05-07 12:32 53.09405 -1.69461 23826 ft 412 kts 339°
2026-05-07 12:32 53.12106 -1.71140 24294 ft 415 kts 339°
2026-05-07 12:33 53.17566 -1.74522 25203 ft 421 kts 339°
2026-05-07 12:33 53.20288 -1.76211 25665 ft 423 kts 339°
2026-05-07 12:33 53.23075 -1.77947 26103 ft 426 kts 339°
2026-05-07 12:34 53.25868 -1.79692 26499 ft 429 kts 339°
2026-05-07 12:34 53.28673 -1.81448 26923 ft 432 kts 339°
2026-05-07 12:34 53.31499 -1.83218 27357 ft 434 kts 339°
2026-05-07 12:34 53.34295 -1.84970 27753 ft 436 kts 340°
2026-05-07 12:35 53.37159 -1.86767 28015 ft 438 kts 340°
2026-05-07 12:35 53.39986 -1.88543 28054 ft 425 kts 339°
2026-05-07 12:35 53.42707 -1.90258 28055 ft 413 kts 340°
2026-05-07 12:35 53.45394 -1.91949 28057 ft 410 kts 340°
2026-05-07 12:36 53.50707 -1.95302 28058 ft 408 kts 340°
2026-05-07 12:36 53.56045 -1.98668 28054 ft 409 kts 340°
2026-05-07 12:37 53.61342 -2.02022 28052 ft 408 kts 339°
2026-05-07 12:37 53.66657 -2.05406 28050 ft 408 kts 339°
2026-05-07 12:38 53.71976 -2.08799 28058 ft 408 kts 339°
2026-05-07 12:38 53.77297 -2.12237 28034 ft 409 kts 338°
2026-05-07 12:39 53.82574 -2.15844 28036 ft 409 kts 337°
2026-05-07 12:39 53.87825 -2.19482 28024 ft 409 kts 337°
2026-05-07 12:40 53.93104 -2.23125 28027 ft 409 kts 337°
2026-05-07 12:40 53.98393 -2.26762 28027 ft 410 kts 337°
2026-05-07 12:41 54.03667 -2.30386 28030 ft 409 kts 337°
2026-05-07 12:41 54.08953 -2.34021 28025 ft 409 kts 337°
2026-05-07 12:42 54.14228 -2.37676 28030 ft 409 kts 337°
2026-05-07 12:42 54.19506 -2.41355 28024 ft 409 kts 336°
2026-05-07 12:43 54.24747 -2.45006 28032 ft 409 kts 336°
2026-05-07 12:43 54.30014 -2.48672 28029 ft 408 kts 336°
2026-05-07 12:44 54.35269 -2.52346 28031 ft 407 kts 336°
2026-05-07 12:44 54.40513 -2.56037 28025 ft 407 kts 336°
2026-05-07 12:45 54.45751 -2.59732 28020 ft 406 kts 336°
2026-05-07 12:45 54.50956 -2.63413 28028 ft 406 kts 335°
2026-05-07 12:46 54.56185 -2.67104 28024 ft 405 kts 336°
2026-05-07 12:46 54.61403 -2.70809 28020 ft 405 kts 335°
2026-05-07 12:47 54.66601 -2.74521 28005 ft 405 kts 335°
2026-05-07 12:47 54.71804 -2.78230 27748 ft 399 kts 335°
2026-05-07 12:48 54.74347 -2.80047 27496 ft 392 kts 335°
2026-05-07 12:48 54.76855 -2.81843 27226 ft 387 kts 335°
2026-05-07 12:48 54.79339 -2.83626 26970 ft 385 kts 335°
2026-05-07 12:48 54.81783 -2.85384 26708 ft 384 kts 335°
2026-05-07 12:49 54.84250 -2.87164 26451 ft 383 kts 335°
2026-05-07 12:49 54.86695 -2.88927 26158 ft 378 kts 335°
2026-05-07 12:49 54.89129 -2.90679 25687 ft 377 kts 335°
2026-05-07 12:49 54.91548 -2.92422 25087 ft 375 kts 335°
2026-05-07 12:50 54.93965 -2.94164 24501 ft 373 kts 335°
2026-05-07 12:50 54.96330 -2.95871 23909 ft 371 kts 335°
2026-05-07 12:50 54.98711 -2.97596 23296 ft 369 kts 335°
2026-05-07 12:50 55.01078 -2.99316 22604 ft 366 kts 335°
2026-05-07 12:51 55.03421 -3.01021 21930 ft 364 kts 335°
2026-05-07 12:51 55.05757 -3.02722 21269 ft 362 kts 335°
2026-05-07 12:51 55.08050 -3.04394 20619 ft 360 kts 335°
2026-05-07 12:51 55.10369 -3.06085 20011 ft 359 kts 334°
2026-05-07 12:52 55.12669 -3.07768 19380 ft 357 kts 335°
2026-05-07 12:52 55.14960 -3.09450 18775 ft 355 kts 335°
2026-05-07 12:52 55.17245 -3.11127 18160 ft 354 kts 335°
2026-05-07 12:52 55.19484 -3.12768 17487 ft 352 kts 334°
2026-05-07 12:53 55.21742 -3.14425 16824 ft 350 kts 334°
2026-05-07 12:53 55.23993 -3.16078 16209 ft 348 kts 334°
2026-05-07 12:53 55.26188 -3.17690 15999 ft 334 kts 334°
2026-05-07 12:53 55.28292 -3.19179 15996 ft 329 kts 339°
2026-05-07 12:54 55.30533 -3.20040 15795 ft 331 kts 352°
2026-05-07 12:54 55.32845 -3.20005 15379 ft 335 kts
2026-05-07 12:54 55.35169 -3.19623 15066 ft 333 kts
2026-05-07 12:54 55.37466 -3.19249 14593 ft 329 kts
2026-05-07 12:55 55.39755 -3.18881 13946 ft 328 kts
2026-05-07 12:55 55.42021 -3.18520 13283 ft 324 kts
2026-05-07 12:55 55.44235 -3.18171 12625 ft 321 kts
2026-05-07 12:55 55.46445 -3.17829 12090 ft 315 kts
2026-05-07 12:56 55.48629 -3.17491 11579 ft 314 kts
2026-05-07 12:56 55.50803 -3.17154 11046 ft 313 kts
2026-05-07 12:56 55.52964 -3.16818 10557 ft 310 kts
2026-05-07 12:56 55.55100 -3.16486 10080 ft 306 kts
2026-05-07 12:57 55.57200 -3.16161 9527 ft 305 kts
2026-05-07 12:57 55.59306 -3.15833 9002 ft 301 kts
2026-05-07 12:57 55.61378 -3.15505 8474 ft 298 kts
2026-05-07 12:57 55.63432 -3.15176 7978 ft 295 kts
2026-05-07 12:58 55.65473 -3.14850 7491 ft 293 kts
2026-05-07 12:58 55.67505 -3.14528 7116 ft 288 kts
2026-05-07 12:58 55.69450 -3.14218 6898 ft 275 kts
2026-05-07 12:58 55.71316 -3.13917 6912 ft 268 kts
2026-05-07 12:59 55.73187 -3.13566 6784 ft 269 kts
2026-05-07 12:59 55.75042 -3.13122 6568 ft 269 kts
2026-05-07 12:59 55.76879 -3.12643 6337 ft 268 kts
2026-05-07 12:59 55.78731 -3.12149 6122 ft 268 kts
2026-05-07 13:00 55.80560 -3.11668 5893 ft 266 kts
2026-05-07 13:00 55.82397 -3.11191 5670 ft 266 kts
2026-05-07 13:00 55.84234 -3.10723 5445 ft 266 kts
2026-05-07 13:00 55.86044 -3.10266 5218 ft 264 kts
2026-05-07 13:01 55.87871 -3.09806 4994 ft 264 kts
2026-05-07 13:01 55.89687 -3.09348 4766 ft 264 kts
2026-05-07 13:01 55.91490 -3.08892 4539 ft 262 kts
2026-05-07 13:01 55.93293 -3.08431 4315 ft 261 kts
2026-05-07 13:02 55.95094 -3.07974 4091 ft 261 kts
2026-05-07 13:02 55.96884 -3.07518 3920 ft 255 kts
2026-05-07 13:02 55.98584 -3.07084 3811 ft 245 kts
2026-05-07 13:02 56.00289 -3.06723 3697 ft 241 kts 355°
2026-05-07 13:03 56.01822 -3.07468 3461 ft 229 kts 322°
2026-05-07 13:03 56.02838 -3.09461 3254 ft 209 kts 289°
2026-05-07 13:03 56.03134 -3.11852 3113 ft 189 kts 262°
2026-05-07 13:03 56.02814 -3.14039 2927 ft 178 kts 237°
2026-05-07 13:04 56.02180 -3.15939 2706 ft 178 kts 236°
2026-05-07 13:04 56.01549 -3.17817 2473 ft 178 kts 236°
2026-05-07 13:04 56.00913 -3.19708 2224 ft 177 kts 236°
2026-05-07 13:04 56.00281 -3.21590 2015 ft 174 kts 236°
2026-05-07 13:05 55.99673 -3.23398 1766 ft 165 kts 235°
2026-05-07 13:05 55.99104 -3.25093 1517 ft 152 kts 235°
2026-05-07 13:05 55.98582 -3.26642 1332 ft 140 kts 235°
2026-05-07 13:05 55.98083 -3.28117 1145 ft 137 kts 235°
2026-05-07 13:06 55.97596 -3.29568 936 ft 136 kts 236°
2026-05-07 13:06 55.97104 -3.31023 760 ft 136 kts 235°
2026-05-07 13:06 55.96614 -3.32470 551 ft 136 kts 236°
2026-05-07 13:06 55.96126 -3.33912 391 ft 136 kts 236°
2026-05-07 13:07 55.95651 -3.35331 218 ft 134 kts 236°
2026-05-07 13:07 55.95188 -3.36685 114 ft 118 kts 238°
2026-05-07 13:07 55.94909 -3.37515 112 ft 37 kts 238°
2026-05-07 13:07 55.94792 -3.37857 115 ft 22 kts 236°
2026-05-07 13:08 55.94732 -3.38023 115 ft 11 kts 237°
2026-05-07 13:08 55.94660 -3.38022 114 ft 12 kts 150°
2026-05-07 13:08 55.94587 -3.37934 115 ft 12 kts 120°
2026-05-07 13:08 55.94618 -3.37805 115 ft 11 kts 58°
2026-05-07 13:09 55.94661 -3.37677 114 ft 13 kts 59°
2026-05-07 13:09 55.94706 -3.37543 115 ft 12 kts 59°
2026-05-07 13:09 55.94747 -3.37422 113 ft 11 kts 58°
2026-05-07 13:09 55.94772 -3.37350 116 ft 10 kts 58°
2026-05-07 13:10 55.94806 -3.37252 113 ft 9 kts 58°
2026-05-07 13:10 55.94836 -3.37166 113 ft 8 kts 59°
2026-05-07 13:10 55.94885 -3.37018 115 ft 16 kts 59°
2026-05-07 13:10 55.94927 -3.36877 114 ft 10 kts 80°
2026-05-07 13:11 55.94885 -3.36793 114 ft 10 kts 148°
2026-05-07 13:11 55.94815 -3.36778 116 ft 11 kts 181°
2026-05-07 13:11 55.94757 -3.36746 115 ft 9 kts 137°
2026-05-07 13:11 55.94751 -3.36649 116 ft 5 kts 89°
2026-05-07 13:12 55.94751 -3.36613 116 ft 0 kts 88°